Home > Time Zones > World Clock > Weather > India > Alwar > Past weeks

Flag for India Weather past 2 weeks in Alwar, Rajasthan, India

Now
57 °F

Haze.


Feels Like: 57 °F
Forecast: 42 / 70 °F
Wind: 2 mph from North

Location: Jaipur / Sanganer

Current Time: Feb 1, 2015 at 1:02:00 AM

Latest Report: Feb 1, 2015 at 12:00 AM


Visibility: 2 mi

Pressure: 30.07 "Hg

Humidity: 63%

Dew point: 45 °F

Location of AlwarLocation

Historic Weather in Alwar — Graph

°F

Alwar temperature yesterday

Maximum temperature yesterday: 73 °F (at 4:00 PM)
Minimum temperature yesterday: 46 °F (at 6:00 AM)
Average temperature yesterday: 61 °F

Past Weeks' High & Low Weather Summary

 TemperatureHumidityPressure
High73 °F (Jan 31, 4:00 PM)100% (Jan 17, 5:30 AM)30.24 "Hg (Jan 17, 5:30 AM)
Low43 °F (Jan 28, 7:00 AM)21% (Jan 28, 2:00 PM)30.01 "Hg (Jan 28, 4:00 PM)
Average58 °F72%30.11 "Hg
* Reported Jan 16 11:00 PM — Jan 31 11:00 PM, Alwar, Weather by CustomWeather, © 2014

Note: Actual official high and low records may vary slightly from our data, if they occured in-between our weather recording intervals... More about our weather records

Advertising

Alwar weather history for previous 24 hours

 ConditionsComfort  
Time TempWeatherWind HumidityBarometerVisibility
11:00 PM
Jan 31
57 °FHaze.2 mph63%30.09 "Hg1 mi
10:00 PM61 °FHaze.2 mph48%30.07 "Hg1 mi
9:30 PM61 °FHaze.2 mph52%30.07 "Hg1 mi
8:30 PM64 °FHaze.5 mph43%30.07 "Hg1 mi
8:00 PM64 °FHaze.3 mph40%30.07 "Hg1 mi
7:30 PM63 °FHaze.1 mph49%30.04 "Hg1 mi
6:00 PM70 °FHaze.2 mph27%30.04 "Hg2 mi
5:30 PM72 °FHaze.3 mph23%30.04 "Hg2 mi
5:00 PM72 °FHaze.6 mph23%30.04 "Hg2 mi
4:30 PM73 °FHaze.6 mph22%30.01 "Hg2 mi
4:00 PM73 °FHaze.5 mph22%30.04 "Hg2 mi
3:00 PM72 °FHaze.8 mph23%30.04 "Hg2 mi
2:00 PM70 °FHaze.7 mph25%30.07 "Hg2 mi
1:00 PM68 °FHaze.7 mph33%30.09 "Hg2 mi
12:30 PM68 °FHaze.6 mph33%30.09 "Hg2 mi
12:00 PM66 °FHaze.6 mph35%30.12 "Hg2 mi
11:30 AM66 °FHaze.6 mph35%30.12 "Hg2 mi
11:00 AM64 °FHaze.6 mph37%30.15 "Hg2 mi
10:00 AM61 °FHaze.5 mph42%30.15 "Hg1 mi
9:30 AM59 °FHaze.2 mph48%30.15 "Hg1 mi
8:00 AM48 °FFog.2 mph76%30.12 "Hg1 mi
7:00 AM46 °FFog.No wind76%30.12 "Hg1 mi
6:00 AM46 °FHaze.2 mph76%30.09 "Hg1 mi
5:00 AM48 °FFog.2 mph76%30.09 "Hg1 mi
4:00 AM48 °FFog.2 mph76%30.09 "Hg1 mi
3:00 AM50 °FHaze.3 mph71%30.09 "Hg1 mi
2:30 AM52 °FHaze.2 mph62%30.12 "Hg1 mi
Weather by CustomWeather, © 2014

See weather overviewHow to use our weather pages